Погода в Шумихе

Погода в Шумихе : погода сейчас, прогноз погоды и архив. Всё, что Вы хотите узнать о погоде в Шумихе!

Хотите узнать прогноз погоды в Шумихе? Тогда Вам сюда: Погода в Шумихе

Поиск расширенной информации на нашем сайте:

Другие новости

Новости СМИ2

Главная страница сайта

Новости сайта

03.07.2017

Напоминаем, что на нашем специализированном сайте Метеоцентр.Азия вы можете получить высокодетализированные автоматические прогнозы погоды по пунктам России, СНГ и мира в авиационном формате (включающие направление и скорость ветра, видимость, явления погоды, количество и форму облачности, нижнюю и верхнюю границу облачности).

Рекомендуем: плитка под кожу

Погода в Шумихе - сегодня

Время (UTC), дата Ветер
(°,м/с) 
Видим.   Явления Облачность Т
(°С)
Тd
(°С)
f(%) Тe
(°С)
Pmin
(гПа)
dP
(гПа)
Po
(мм)
O2
(г/м3)
Тmin Tmax R s Состояние
почвы
06 18.09.18 180 (Ю) 4{10}  20000 м    9/5 600 м средняя, верхняя 
[Sc|Ac trans|Ci sp]
+18.9 +1.3 31 +19  1017.3  0.1  747  281           
18 18.09.18 140 (ЮВ) 20000 м    8/3 600 м средняя, верхняя 
[Sc|Ac trans|Ci sp]
+16.5 +0.5 34 +17  1012.8  -1.3  744  283           
00 19.09.18 120 (ЮВ) 20000 м    9/0 средняя 
[Ac trans]
+12.9 +1.4 45 +12  1007.9  -2.8  740  285           
06 19.09.18 120 (ЮВ) 20000 м    9/6 600 м кучево-дожд., средняя, верхняя 
[Cb cap|Ac trans|Ci sp]
+16.5 +2 38 +16  1002.9  -2.5  737  280           
18 19.09.18 150 (ЮВ) 20000 м    9/4 600 м верхняя 
[Sc|Ci sp]
+12.3 +6 65 +13  1000  -0.6  734  282           
00 20.09.18 190 (Ю) 20000 м    9/3 600 м верхняя 
[Sc|Ci sp]
+8.5 +6.6 88 +10  999.7  734  286           
06 20.09.18 200 (Ю) 20000 м    9/4 600 м средняя, верхняя 
[Sc|Ac trans|Ci sp]
+13 +8.5 74 +13  1000.9  0.8  735  281           
12 20.09.18 300 (СЗ) 20000 м    8/5 600 м кучево-дожд., верхняя 
[Cb cap|Ci sp]
+14.9 +6.8 58 +15  1001.7  0.6  736  280           
18 20.09.18 300 (СЗ) 20000 м    8/8 600 м 
[Sc]
+10.6 +6.2 74 +11  1001.8  -0.8  736  284           
00 21.09.18 330 (СЗ) 20000 м    9/9 600 м 
[Sc]
+10.2 +7.8 85 +10  1000.4  -0.3  735  284           
06 21.09.18 330 (СЗ) 20000 м  {дождь}  10/10 600 м 
[Sc]
+10.6 +9.5 93 +11  1001.6  0.6  735  283           
00 22.09.18 310 (СЗ) 20000 м    8/8 600 м 
[Sc]
+10.7 +7.4 80 +10  1008.8  1.5  741  286           
06 22.09.18 300 (СЗ) 5{11}  20000 м    9/5 600 м кучево-дожд., средняя, верхняя 
[Cb cap|Ac trans|Ci sp]
+12.9 +7.7 71 +12  1011.5  0.8  743  284           
18 22.09.18 330 (СЗ) 20000 м    9/9 600 м 
[Sc]
+12.2 +6.7 69 +12  1014.5  745  286           
00 23.09.18 300 (СЗ) 20000 м    ясно 
+6.8 +5.5 91 +7  1017.2  1.5  747  293           
06 23.09.18 330 (СЗ) 20000 м    4/3 1000 м верхняя 
[Cu hum|Ci sp]
+14 +5.9 58 +14  1018.7  0.3  748  286           
12 23.09.18 340 (С) 20000 м    9/0 верхняя 
[Ci sp]
+16.9 +2.9 39 +17  1018.6  0.1  748  283           
18 23.09.18 тихо ()   20000 м    8/0 верхняя 
[Ci sp]
+3.7 +2.4 91 +4  1020.4  0.1  749  297           
00 24.09.18 190 (Ю) 20000 м    ясно 
+4.7 +3 89 +4  1020.5  0.3  749  296           
06 24.09.18 200 (Ю) 20000 м    3/0 верхняя 
[Ci fib]
+16.9 +8.5 58 +17  1019.3  749  283           
12 24.09.18 210 (ЮЗ) 20000 м    3/0 верхняя 
[Ci fib]
+21.6 +6.8 38 +22  1018.3  -0.2  748  278           
18 24.09.18 200 (Ю) 20000 м    ясно 
+13.7 +7.1 64 +13  1018.9  0.1  748  286           
00 25.09.18 200 (Ю) 20000 м    ясно 
+11.1 +6.4 73 +10  1020  0.1  749  289           
06 25.09.18 200 (Ю) 20000 м    ясно 
+19.2 +7.9 48 +20  1020.6  0.5  750  281           
18 25.09.18 190 (Ю) 20000 м    ясно 
+15.1 +0.6 37 +15  1021.4  0.4  750  286           
Время (UTC), дата Ветер
(°,м/с) 
Видим.   Явления Облачность Т
(°С)
Тd
(°С)
f(%) Тe
(°С)
Pmin
(гПа)
dP
(гПа)
Po
(мм)
O2
(г/м3)
Тmin Tmax R s Состояние
почвы

Для получения пояснительной информации подведите курсор к названию столбца.

ПОГОДА в Шумихе - архив

Всё, что Вы хотите узнать о погоде в Шумихе - удобно и подробно!

Выберите нужную дату (начиная с 1 января 2015* года) и нажмите кнопку "Найти".
Будут отображены архивные сводки погоды по пункту Шумиха, начиная с указанной даты.


Отображать данные в формате CSV (для использования в таблицах Excel)


Внимание! Наш архив погоды предназначен исключительно для личного некоммерческого использования в познавательных целях. Если Вам необходимы официальные справки о состоянии погоды (для производственных, юридических, коммерческих и т.п. целей), обращайтесь в органы Росгидромета.

*Примечание: данная дата относится к архиву по метеостанциям СССР (Россия, СНГ, Балтия).
Архив по метеостанциям Зарубежной Европы и Азии (кроме Китая) хранится 10 дней, по другим регионам земного шара (Китай, Африка, Америка, Австралия, Океания) - 1 день.

Шумиха - район местоположения метеостанции


Название, широта, долгота, высота метеостанции:
Шумиха 55.2°ш. 63.3°д. 178 м над ур. моря [Российская Федерация]

Дополнительная информация

В oтличие oт бoльшинства пoгoдных сайтoв мы публикуем пoдрoбную метеoинфoрмацию в детальнoм прoфессиoнальнoм фoрмате.

Характеристики температуры и влажнoсти вoздуха измеряются на высoте 2 м в тени вдали oт зданий и деревьев.
Скoрoсть ветра измеряется на высoте 10 м (на урoвне рoста челoвека скoрoсть ветра ниже в 1.5-2 раза). Если метеoстанция нахoдится в гoрoде или в лесу, тo скoрoсть ветра занижена на 2-4 м/с пo сравнению с oткрытым местoм. Скoрoсть ветра над акватoриями крупных рек и oзёр, а также на вершинах хoлмoв на 2-5 м/с выше, чем в oбычных услoвиях.
Атмoсфернoе давление в разных тoчках местнoсти мoжет значительнo oтличаться oт давления на метеoстанции, в зависимoсти oт услoвий рельефа (при пoдъёме на 10 м давление пoнижается примернo на 1 мм рт.ст.).